Change the Weather History Date:

Monday, May 20, 2013

  Actual Average Record
Temperature  
Mean Temperature 56 °F -  
Max Temperature 60 °F 61 °F 71 °F (1998)
Min Temperature 50 °F 47 °F 33 °F (2008)
Degree Days  
Heating Degree Days 10    
Growing Degree Days 6 (Base 50)    
Moisture  
Dew Point 49 °F    
Average Humidity 83    
Maximum Humidity 94    
Minimum Humidity 74    
Precipitation  
Precipitation 0.00 in 0.07 in - ()
Sea Level Pressure  
Sea Level Pressure 30.04 in    
Wind  
Wind Speed 9 mph ()    
Max Wind Speed 20 mph    
Max Gust Speed -    
Visibility 6.7 miles    
Events Rain    
Averages and records for this station are not official NWS values.
T = Trace of Precipitation, MM = Missing Value Source: Averaged Metar Reports

Daily Weather History Graph

Daily Weather History Graph

Search for Another Location

Airport or City:

Trip Planner

Search our weather history database for the weather conditions in past years. The results will help you decide how hot, cold, wet, or windy it might be!

Date:

Astronomy

May. 20, 2013 Rise Set
Actual Time 5:17 AM IST 9:27 PM IST
Civil Twilight 4:31 AM IST 10:13 PM IST
Nautical Twilight 3:23 AM IST 11:21 PM IST
Astronomical Twilight 1:54 AM IST 12:49 AM IST
Moon 3:37 PM IST (5/20) 2:51 AM IST (5/20)
Length of Visible Light 17h 42m
Length of Day
16h 09m
Waxing Gibbous, 73% of the Moon is Illuminated
May 20
Waxing Gibbous
May 25
Full
May 31
Last Quarter
Jun 8
New
Jun 16
First Quarter

Hourly Weather History & Observations

Time (IST) Temp. Dew Point Humidity Pressure Visibility Wind Dir Wind Speed Gust Speed Precip Events Conditions
12:00 AM 53.6 °F 46.4 °F 77% 30.04 in 6.2 mi Variable 2.3 mph - N/A   Mostly Cloudy
12:30 AM 53.6 °F 48.2 °F 82% 30.04 in 6.2 mi West 4.6 mph - N/A   Mostly Cloudy
1:00 AM 53 °F 47 °F 74% 30.05 in 25 mi West 6.7 mph - -   Mostly Cloudy
1:00 AM 53.6 °F 46.4 °F 77% 30.04 in 6.2 mi West 4.6 mph - N/A   Mostly Cloudy
1:30 AM 51.8 °F 46.4 °F 82% 30.04 in 6.2 mi West 5.8 mph - N/A   Mostly Cloudy
2:00 AM 51.8 °F 48.2 °F 88% 30.01 in 6.2 mi West 6.9 mph - N/A   Mostly Cloudy
2:30 AM 53.6 °F 48.2 °F 82% 30.01 in 6.2 mi West 8.1 mph - N/A   Mostly Cloudy
3:00 AM 53.6 °F 50.0 °F 88% 30.01 in 6.2 mi WNW 6.9 mph - N/A   Mostly Cloudy
3:30 AM 53.6 °F 50.0 °F 88% 30.01 in 6.2 mi WNW 8.1 mph - N/A   Mostly Cloudy
4:00 AM 53.6 °F 50.0 °F 88% 30.01 in 6.2 mi West 6.9 mph - N/A   Mostly Cloudy
4:30 AM 53.6 °F 50.0 °F 88% 30.01 in 6.2 mi WNW 6.9 mph - N/A   Mostly Cloudy
5:00 AM 53.6 °F 48.2 °F 82% 30.01 in 6.2 mi WNW 8.1 mph - N/A   Mostly Cloudy
5:30 AM 53.6 °F 48.2 °F 82% 30.01 in 6.2 mi NW 8.1 mph - N/A   Mostly Cloudy
6:00 AM 53.6 °F 48.2 °F 82% 30.01 in 6.2 mi WNW 9.2 mph - N/A   Mostly Cloudy
6:30 AM 51.8 °F 48.2 °F 88% 30.01 in 6.2 mi WNW 10.4 mph - N/A   Mostly Cloudy
7:00 AM 53 °F 49 °F 84% 30.04 in 16 mi WNW 11.2 mph - - Rain Light Drizzle
7:00 AM 51.8 °F 50.0 °F 94% 30.01 in 6.2 mi WNW 10.4 mph - N/A   Mostly Cloudy
7:30 AM 51.8 °F 50.0 °F 94% 30.01 in 6.2 mi WNW 10.4 mph - N/A   Mostly Cloudy
8:00 AM 51.8 °F 50.0 °F 94% 30.04 in 6.2 mi West 13.8 mph - N/A   Light Drizzle
8:30 AM 53.6 °F 50.0 °F 88% 30.04 in 6.2 mi WNW 11.5 mph - N/A   Mostly Cloudy
9:00 AM 53.6 °F 50.0 °F 88% 30.04 in 6.2 mi WNW 11.5 mph - N/A   Mostly Cloudy
9:30 AM 53.6 °F 50.0 °F 88% 30.04 in 6.2 mi WNW 11.5 mph - N/A   Mostly Cloudy
10:00 AM 53.6 °F 50.0 °F 88% 30.04 in 6.2 mi WNW 11.5 mph - N/A   Light Drizzle
10:30 AM 53.6 °F 50.0 °F 88% 30.04 in 6.2 mi NW 10.4 mph - N/A   Mostly Cloudy
11:00 AM 55.4 °F 50.0 °F 82% 30.04 in 6.2 mi NW 12.7 mph - N/A   Light Drizzle
11:30 AM 55.4 °F 50.0 °F 82% 30.04 in 6.2 mi NW 10.4 mph - N/A   Mostly Cloudy
12:00 PM 55.4 °F 50.0 °F 82% 30.04 in 6.2 mi NW 11.5 mph - N/A   Mostly Cloudy
12:30 PM 55.4 °F 50.0 °F 82% 30.04 in 6.2 mi NW 12.7 mph - N/A   Mostly Cloudy
1:00 PM 55 °F 51 °F 80% 30.04 in 12 mi NW 15.7 mph - -   Partly Cloudy
1:00 PM 55.4 °F 50.0 °F 82% 30.04 in 6.2 mi NW 15.0 mph - N/A   Mostly Cloudy
1:30 PM 55.4 °F 51.8 °F 88% 30.04 in 6.2 mi NW 15.0 mph - N/A   Mostly Cloudy
2:00 PM 55.4 °F 50.0 °F 82% 30.04 in 6.2 mi NW 12.7 mph - N/A   Mostly Cloudy
2:30 PM 57.2 °F 51.8 °F 82% 30.04 in 6.2 mi NW 16.1 mph - N/A   Mostly Cloudy
3:00 PM 59.0 °F 51.8 °F 77% 30.04 in 6.2 mi NW 13.8 mph - N/A   Mostly Cloudy
3:30 PM 59.0 °F 51.8 °F 77% 30.04 in 6.2 mi NW 15.0 mph - N/A   Mostly Cloudy
4:00 PM 59.0 °F 51.8 °F 77% 30.04 in 6.2 mi NW 15.0 mph - N/A   Mostly Cloudy
4:30 PM 57.2 °F 51.8 °F 82% 30.04 in 6.2 mi NW 15.0 mph - N/A   Mostly Cloudy
5:00 PM 57.2 °F 51.8 °F 82% 30.04 in 6.2 mi NW 18.4 mph - N/A   Mostly Cloudy
5:30 PM 57.2 °F 50.0 °F 77% 30.04 in 6.2 mi NW 17.3 mph - N/A   Mostly Cloudy
6:00 PM 57.2 °F 50.0 °F 77% 30.06 in 6.2 mi WNW 12.7 mph - N/A   Mostly Cloudy
6:30 PM 55.4 °F 50.0 °F 82% 30.06 in 6.2 mi NW 15.0 mph - N/A   Mostly Cloudy
7:00 PM 54 °F 49 °F 78% 30.08 in 16 mi NNW 17.9 mph - -   Mostly Cloudy
7:30 PM 53.6 °F 48.2 °F 82% 30.06 in 6.2 mi NNW 17.3 mph - N/A   Mostly Cloudy
8:00 PM 53.6 °F 48.2 °F 82% 30.06 in 6.2 mi NNW 17.3 mph - N/A   Mostly Cloudy
8:30 PM 53.6 °F 48.2 °F 82% 30.09 in 6.2 mi NW 18.4 mph - N/A   Mostly Cloudy
9:00 PM 51.8 °F 48.2 °F 88% 30.09 in 6.2 mi NW 16.1 mph - N/A   Mostly Cloudy
9:30 PM 51.8 °F 46.4 °F 82% 30.09 in 6.2 mi NW 19.6 mph - N/A   Mostly Cloudy
10:00 PM 51.8 °F 46.4 °F 82% 30.12 in 6.2 mi NW 18.4 mph - N/A   Mostly Cloudy
10:30 PM 51.8 °F 46.4 °F 82% 30.09 in 6.2 mi NW 13.8 mph - N/A   Mostly Cloudy
11:00 PM 51.8 °F 46.4 °F 82% 30.12 in 6.2 mi NW 17.3 mph - N/A   Mostly Cloudy
11:30 PM 50.0 °F 44.6 °F 82% 30.12 in 6.2 mi NW 19.6 mph - N/A   Mostly Cloudy